Location: Newark
(45.5000°N, 11.4167°E)
Time: 09:38:22
(UTC+00:00)

Transit 2A Rocket - Pass Details

Date: 30 August 2019
Orbit: 592 x 911 km, 66.7° (Epoch: 14 September)

Event Time Altitude Azimuth Distance (km) Brightness Sun altitude
Rises 02:47:15 0° 310° (NW) 2,941 7.9 -17.6°
Enters shadow 02:48:22 - 304° (NW) 2,577 7.5 -17.5°
Reaches altitude 10° 02:50:34 10° 285° (WNW) 1,980 - -17.2°
Maximum altitude 02:52:49 14° 255° (WSW) 1,709 - -16.8°
Drops below altitude 10° 02:55:02 10° 223° (SW) 1,931 - -16.5°
Sets 02:58:12 0° 198° (SSW) 2,813 - -16.0°
